Regional Weather Roundup
Issued by NWS

Home | Current Version | Previous Version | Text Only | Print | Product List | Glossary On
Versions: 1 2 3 4 5 6 7 8 9 10 11 12 13 14 15 16 17 18 19 20 21 22 23 24 25 26 27 28 29 30 31 32 33 34 35 36 37 38 39 40 41 42 43 44 45 46 47 48 49 50
000
ASUS43 KLOT 291321
RWRIL

ILLINOIS REGIONAL WEATHER ROUNDUP
NATIONAL WEATHER SERVICE CHICAGO/ROMEOVILLE IL
800 AM CDT FRI MAY 29 2015

NOTE: "FAIR" INDICATES FEW OR NO CLOUDS BELOW 12,000 FEET WITH NO
SIGNIFICANT WEATHER AND/OR OBSTRUCTIONS TO VISIBILITY.

* THESE STATIONS ARE NOT UNDER NWS QUALITY CONTROL. THEY ALSO MAY NOT
  REPORT WEATHER SUCH AS PRECIPITATION OR FOG.

ILZ001-002-007-009-015-016-024-291400-
NORTHWEST ILLINOIS

CITY           SKY/WX    TMP DP  RH WIND       PRES   REMARKS
MOLINE         PTSUNNY   72  65  78 S7        29.97S
STERLING*      PTSUNNY   73  64  73 S8        30.00F
SAVANNA*       CLOUDY    72  64  76 S9        29.98F
$$

ILZ003-004-008-010-011-017-018-291400-
NORTH CENTRAL ILLINOIS

CITY           SKY/WX    TMP DP  RH WIND       PRES   REMARKS
ROCKFORD       CLOUDY    72  64  76 S10       30.03R
FREEPORT*      CLOUDY    69  63  82 S8        30.02S
ROCHELLE*      PTSUNNY   72  65  77 S12       30.03R
DE KALB*       PTSUNNY   69  63  81 S9        30.04S
PERU*          MOSUNNY   74  65  74 S10       30.02S
$$

ILZ005-006-012>014-019>023-291400-
NORTHEAST ILLINOIS

CITY           SKY/WX    TMP DP  RH WIND       PRES   REMARKS
CHICAGO-OHARE  PTSUNNY   72  64  76 S8        30.03R
CHICAGO-MIDWAY MOSUNNY   75  66  73 S7        30.04R
AURORA         MOSUNNY   73  64  73 S8        30.04R
LANSING*       MOSUNNY   72  64  77 SW7       30.06R
JOLIET*        MOSUNNY   74  67  79 S7        30.04S
WAUKEGAN       CLOUDY    67  61  81 CALM      30.02S
DUPAGE AIRPORT MOSUNNY   72  65  78 S8        30.04R
KANKAKEE*      PTSUNNY   73  66  80 S8        30.07R
WHEELING       PTSUNNY   72  64  76 S10       30.05R
MORRIS*        MOSUNNY   73  65  76 S8        30.02S
ROMEOVILLE*    MOSUNNY   72  65  78 S9        30.04S
NORTHERLY ISL    N/A     73  63  70 S8          N/A
$$

LMZ740>746-291400-
SOUTHERN LAKE MICHIGAN

STATION/POSITION SKY/WX   TEMP    WIND        PRES    VSBY  WAVE
                          AIR SEA DIR/SP/G                  HT/PER
                          (F)     (DEG/KT/KT) (MB)    (MI)  (FT/S)
SOUTHERN BUOY              47 38  150/ 12/ 12 1017.7R         1
HARRISON CRIB              68     170/ 13/ 14   N/A
BURNHAM HARBOR             73     190/  8/  9   N/A
CALUMET HARBOR             71     180/  9/ 12   N/A
BURNS HARBOR               70     170/ 11/ 16 1017.9
MICHIGAN CITY              71     150/ 10/ 14   N/A
MICHIGAN CITY 6N           64 55  180/  8/ 10   N/A           1
ST. JOSEPH                 64 56  200/ 10/ 10   N/A           1/ 2
$$

ILZ025>027-034>036-040-047-049-050-058-095>099-291400-
WEST-CENTRAL ILLINOIS

CITY           SKY/WX    TMP DP  RH WIND       PRES   REMARKS
QUINCY         CLOUDY    68  64  87 SW14      29.99R
GALESBURG*     LGT RAIN  70  65  85 S9        29.99S
MACOMB*        CLOUDY    69  66  89 S12G17    30.01R
JACKSONVILLE*  PTSUNNY   73  68  84 S13       30.02R
PITTSFIELD*    PTSUNNY   70  66  87 S6        30.02R
$$

ILZ028>032-037-038-041>044-048-051>054-059>061-291400-
CENTRAL ILLINOIS

CITY           SKY/WX    TMP DP  RH WIND       PRES   REMARKS
PONTIAC        PTSUNNY   74  68  81 S10       30.04S HAZE
BLOOMINGTON    PTSUNNY   72  67  84 S13       30.06R
DECATUR        CLOUDY    71  66  84 S12       30.06R
PEORIA         CLOUDY    72  66  81 S9        30.02R
LACON*         MOSUNNY   72  65  78 S7        30.01R
LINCOLN*       CLOUDY    71  66  83 S9        30.02R
SPRINGFIELD    CLOUDY    73  67  81 S10       30.03R
TAYLORVILLE    CLOUDY    68  64  88 SE7       30.05R
$$

ILZ033-039-045-046-055>057-062-063-291400-
EAST-CENTRAL ILLINOIS

CITY           SKY/WX    TMP DP  RH WIND       PRES   REMARKS
CHAMPAIGN      PTSUNNY   72  66  81 S10       30.08R
DANVILLE*      CLOUDY    69  65  86 S6        30.07R
RANTOUL*       CLOUDY    73  67  82 S9        30.08R
PARIS*         MOSUNNY   73  67  80 S10       30.09R
$$

ILZ079-100>102-291400-
SOUTHWEST ILLINOIS

CITY           SKY/WX    TMP DP  RH WIND       PRES   REMARKS
ALTON          MOSUNNY   72  72 100 S9        30.04S
BELLEVILLE     PTSUNNY   73  71  95 SE7       30.04R
CAHOKIA*       MOSUNNY   74  67  78 S8        30.04R
SPARTA*        PTSUNNY   70  66  88 SW6       30.08R
$$

ILZ064>066-069>071-074>076-080>082-084>086-088>090-092>094-291400-
SOUTH-CENTRAL ILLINOIS

CITY           SKY/WX    TMP DP  RH WIND       PRES   REMARKS
CARBONDALE     PTSUNNY   72  67  84 S9        30.08R
CAIRO*         PTSUNNY   71  68  91 S7        30.09S
EFFINGHAM*     CLOUDY    72  65  77 S6        30.10R
MARION         PTSUNNY   72  68  88 MISG      30.10R
MT. VERNON     PTSUNNY   72  64  78 S7        30.11R
CENTRALIA*     PTSUNNY   74  65  74 S8        30.08S
SALEM*         PTSUNNY   72  66  82 S5        30.09R
METROPOLIS*    CLOUDY    70  70 100 SE6       30.11R
$$

ILZ067-068-072-073-078-083-087-091-291400-
SOUTHEAST ILLINOIS

CITY           SKY/WX    TMP DP  RH WIND       PRES   REMARKS
LAWRENCEVILLE  FAIR      73  66  78 S9        30.10R
FLORA*         FAIR      73  66  80 S8        30.10R
FAIRFIELD*     PTSUNNY   74  68  79 S9        30.09R
HARRISBURG*    PTSUNNY   72  69  90 S8        30.11R
ROBINSON*      MOSUNNY   72  66  82 S9        30.10R
CARMI*         CLOUDY    73  64  73 S10       30.10R
$$

ABBREVIATIONS USED IN REMARKS
   TC - TEMPERATURE IN CELSIUS
  WCI - WIND CHILL INDEX
   HX - HEAT INDEX
  VSB - VISIBILITY
$$




USA.gov is the U.S. government's official web portal to all federal, state and local government web resources and services.